www.pogodaiklimat.ru

Погода и климат >> Архив погоды >> Саудовская Аравия >> Эд-Даммам


ПОГОДА в Эд-Даммаме

  • Прогноз погоды в Эд-Даммаме
  • Монитор погоды в Эд-Даммаме

АРХИВ ПОГОДЫ в Эд-Даммаме

Время (UTC), дата Ветер
(напр.,м/с)
 
Видим.   Явления Облачность Т
(С)
Тd
(С)
f
(%)
Тe
(С)
Тes
(С)
Комфортность P
(гПа)
Po
(гПа)
Тmin
(С)
Tmax
(С)
R
(мм)
R24
(мм)
S
(см)
09 13.06 С 12 7000 м пыльный позёмок ясно +41.4 +5.0 11 +38 +38 очень
жарко
1001.6 1000.2
12 13.06 С 12 10 км ясно +41.1 +1.0 8 +37 +37 очень
жарко
1000.6 999.2
15 13.06 С 8 10 км ясно +39.0 +6.0 13 +36 +36 очень
жарко
1000.5 999.1
18 13.06 С 4 10 км ясно +34.6 +10.0 22 +34 +34 очень
жарко
1001.4 1000.0 +42.5
21 13.06 СЗ 4 10 км ясно +32.5 +12.0 29 +33 +33 жарко 1000.2 998.8
00 14.06 З 4 10 км ясно +30.5 +6.0 21 +29 +29 жарко 999.2 997.8
03 14.06 СЗ 5 10 км ясно +30.6 +4.0 19 +29 +29 жарко 1000.4 999.0
06 14.06 СЗ 6 10 км ясно +39.0 +6.0 13 +36 +42 очень
жарко
1001.3 999.9 +29.8
09 14.06 С 7 10 км ясно +44.6 -2.0 6 +41 +46 опасность
перегрева
1000.3 998.9
12 14.06 С 6 10 км ясно +44.6 +1.0 7 +41 +45 опасность
перегрева
999.1 997.7
15 14.06 С 5 10 км ясно +42.1 +2.0 9 +39 +39 очень
жарко
999.4 998.0
18 14.06 С 2 10 км ясно +35.2 +5.0 15 +32 +32 жарко 1000.1 998.7 +45.7
21 14.06 З 3 10 км ясно +32.6 +4.0 17 +30 +30 жарко 998.8 997.5
00 15.06 З 2 10 км ясно +31.9 +2.0 15 +29 +29 жарко 998.4 997.0
03 15.06 З 3 10 км ясно +31.1 +2.0 16 +29 +30 жарко 999.3 997.9
06 15.06 СЗ 5 10 км ясно +41.0 +2.0 9 +37 +45 очень
жарко
1000.4 999.0 +30.2
09 15.06 С 5 10 км ясно +45.5 +5.0 9 +43 +55 опасность
перегрева
999.6 998.2
12 15.06 С 8 10 км ясно +45.4 +4.0 8 +42 +44 опасность
перегрева
998.7 997.3
15 15.06 С 5 10 км ясно +42.0 +8.0 13 +40 +40 очень
жарко
999.0 997.6
18 15.06 С 2 10 км ясно +34.7 +12.0 25 +34 +34 очень
жарко
1000.0 998.6 +46.8
21 15.06 З 3 10 км ясно +32.8 +12.0 28 +33 +33 жарко 999.0 997.7
00 16.06 З 5 10 км ясно +32.1 +4.0 17 +30 +30 жарко 998.0 996.7
03 16.06 СЗ 2 10 км ясно +31.4 +4.0 18 +29 +31 жарко 999.5 998.1
06 16.06 СЗ 5 10 км 1/0
[Ci sp]
+41.7 +3.0 9 +38 +45 очень
жарко
1000.9 999.5 +30.4
09 16.06 С 6 10 км 3/0
[Ci sp]
+46.4 +3.0 7 +43 +51 опасность
перегрева
999.9 998.6
12 16.06 С 7 10 км 4/0
[Ci sp]
+46.7 +4.0 8 +44 +46 опасность
перегрева
999.0 997.7
15 16.06 С 5 10 км 3/0
[Ci sp]
+42.5 +7.0 12 +40 +40 очень
жарко
999.1 997.7
18 16.06 С 3 8000 м пыль ясно +35.0 +11.0 23 +34 +34 очень
жарко
1000.1 998.8 +47.2
21 16.06 З 2 10 км 4/0
[Ci sp]
+33.3 +8.0 21 +32 +32 жарко 999.5 998.2
00 17.06 З 3 10 км ясно +31.4 +5.0 19 +29 +29 жарко 998.8 997.5
03 17.06 СЗ 2 10 км ясно +30.8 +3.0 17 +28 +30 жарко 1000.5 999.1
06 17.06 З 6 10 км 3/0
[Ci fib]
+41.1 +3.0 10 +38 +43 очень
жарко
1001.7 1000.3 +30.4
09 17.06 С 9 10 км 3/0
[Ci fib]
+47.1 +6.0 9 +45 +47 опасность
перегрева
1000.6 999.3
12 17.06 С 10 10 км 3/0
[Ci fib]
+46.3 +6.0 9 +44 +44 опасность
перегрева
999.6 998.3
15 17.06 С 6 10 км 4/0
[Cs]
+41.3 +9.0 14 +39 +39 очень
жарко
1000.3 998.9
18 17.06 С 4 10 км ясно +35.4 +12.0 24 +35 +35 очень
жарко
1001.3 1000.0 +47.4
21 17.06 СЗ 4 10 км ясно +34.6 +12.0 25 +34 +34 очень
жарко
1000.7 999.4
00 18.06 СЗ 5 10 км ясно +31.5 +16.0 39 +34 +34 душно 1000.3 998.9
03 18.06 СЗ 5 10 км ясно +31.4 +15.0 37 +34 +34 душно 1001.6 1000.2
06 18.06 С 10 10 км ясно +40.3 +13.0 20 +40 +41 очень
жарко
1001.9 1000.5 +30.3
09 18.06 С 10 10 км ясно +43.4 +8.0 12 +41 +42 опасность
перегрева
1001.7 1000.3
12 18.06 С 12 10 км ясно +43.4 +5.0 10 +41 +41 опасность
перегрева
1000.9 999.5
15 18.06 С 8 10 км ясно +39.8 +6.0 13 +37 +37 очень
жарко
1000.9 999.5
18 18.06 СЗ 3 10 км 3/0
[Ci fib]
+36.0 +10.0 21 +35 +35 очень
жарко
1001.4 1000.0 +44.0
21 18.06 З 4 10 км ясно +31.6 +10.0 26 +31 +31 жарко 1000.3 998.9
00 19.06 СЗ 5 10 км ясно +31.6 +7.0 22 +30 +30 жарко 999.1 997.7
03 19.06 З 5 10 км ясно +30.1 +7.0 23 +29 +30 жарко 1000.0 998.6
06 19.06 С 9 10 км ясно +38.2 +11.0 20 +37 +39 очень
жарко
1000.7 999.3 +29.9
09 19.06 С 16 6000 м пыльный позёмок ясно +43.0 +5.0 10 +40 +40 очень
жарко
1000.3 998.9
12 19.06 С 11 6000 м пыльный позёмок ясно +41.7 +7.0 12 +39 +39 очень
жарко
999.3 997.9
15 19.06 С 8 6000 м пыльный позёмок ясно +39.0 +8.0 15 +37 +37 очень
жарко
999.1 997.7
18 19.06 СЗ 4 8000 м пыль ясно +35.3 +10.0 21 +34 +34 очень
жарко
1000.3 998.9 +43.0
21 19.06 СЗ 5 10 км ясно +31.7 +14.0 34 +33 +33 жарко 1000.4 999.0
00 20.06 СЗ 4 10 км ясно +29.1 +16.0 45 +32 +32 душно 1000.0 998.6
03 20.06 З 5 10 км ясно +29.4 +5.0 21 +28 +28 жарко 1001.3 999.9
06 20.06 СЗ 8 10 км ясно +37.0 +10.0 20 +36 +38 очень
жарко
1002.0 1000.6 +28.2

 

Местоположение метеостанции Эд-Даммам (Саудовская Аравия): широта 26.45 долгота 49.82 высота над уровнем моря 12 м.

В архиве по умолчанию представлена погода в Эд-Даммаме за последнюю неделю. Архивные данные за месяц целиком и за предыдущие месяцы, начиная с января 2011 года, Вы можете получить, выбрав интересующий диапазон дат из раскрывающегося списка и нажав кнопку "Ввод!".


*Определитесь, кто Вы:
робот инопланетянин человек

Внимание! Время в таблицах - всемирное. Для получения местного времени необходимо прибавить поправку, которая равна 3 ч.

Смотрите также архив погоды в соседних городах и на ближайших метеорологических станциях:

Погода в Дахране (Саудовская Аравия) (40 км)
Погода в Бахрейне (Бахрейн) (85 км)
Погода в Эль-Хуфуфе (Саудовская Аравия) (132 км)
Погода в Духане (Катар) (149 км)
Погода в Абу Самба (Катар) (214 км)
Погода в Дохе (Катар) (220 км)
Погода в Аэропорту Хамад (Катар) (222 км)
Погода в Доха порту (Катар) (235 км)
Погода в Нувасибе (Кувейт) (251 км)
Погода в Бендер-Дейере (Иран) (259 км)

Пояснения к столбцам:

Ветер - указаны скорость ветра в м/с - средняя за 10 мин, порывы в срок и между сроками (в фигурных скобках) и направление, откуда дует ветер: С - северный, СВ - северо-восточный, В - восточный, ЮВ - юго-восточный, Ю - южный, ЮЗ - юго-западный, З - западный, СЗ - северо-западный.
Видимость - горизонтальная дальность видимости в метрах или километрах. При видимости от 1 до 10 км при отсутствии осадков обычно наблюдается дымка, при ухудшении видимости до 1 км и менее - туман. В сухую погоду видимость может ухудшаться дымом, пылью или мглою.
Явления - указаны атмосферные явления, наблюдавшиеся в срок или в последний час перед сроком; фигурными скобками обозначены явления, наблюдавшиеся между сроками (за 1-3 часа до срока); квадратными скобками обозначены град или гололедные отложения с указанием их диаметра в мм.
Облачность - указаны через наклонную черту общая и нижняя облачность в баллах и высота нижней границы облаков в метрах; квадратными скобками обозначены формы облаков: Ci - перистые, Cs - перисто-слоистые, Cc - перисто-кучевые, Ac - высококучевые, As - высокослоистые, Sc - слоисто-кучевые, Ns - слоисто-дождевые, Cu - кучевые, Cb - кучево-дождевые. Подробнее классификацию облаков см. в Атласе облаков (PDF).
T - Температура воздуха - температура, измеренная на высоте 2 м над землей.
Td - Температура точки росы - температура, при понижении до которой содержащийся в воздухе водяной пар достигнет насыщения.
f - Относительная влажность воздуха - влажноcть воздуха, измеренная на высоте 2 м над землей.
Te - Эффективная температура - температура, которую ощущает одетый по сезону человек в тени. Характеристика душности погоды. При расчете учитывается влияние влажности воздуха и скорости ветра на теплоощущения человека.
Tes - Эффективная температура на солнце - температура, которую ощущает человек, с поправкой на солнечный нагрев. Характеристика знойности погоды. Зависит от высоты солнца над горизонтом, облачности и скорости ветра. Ночью, в пасмурную погоду, а также при ветре 12 м/с и более поправка равна нулю.
P - Атмосферное давление - приведенное к уровню моря атмосферное давление.
Po - Атмосферное давление - измеренное на уровне метеостанции атмосферное давление.
Tmin - Минимальная температура - минимум температуры воздуха на высоте 2 м над землей.
Tmax - Максимальная температура - максимум температуры воздуха на высоте 2 м над землей.
R - Количество осадков - Количество выпавших осадков за период времени, мм. При наведении курсора мыши на число - период времени, за который выпало указанное количество осадков.
R24 - Количество осадков - Количество выпавших осадков за 24 часа, мм.
S - Снежный покров - Высота снежного покрова, см. При наведении курсора мыши на число - состояние снежного покрова и степень покрытия местности в баллах.